Regional Weather Roundup
Issued by NWS

Home | Current Version | Previous Version | Graphics & Text | Print | Product List | Glossary On
Versions: 1 2 3 4 5 6 7 8 9 10 11 12 13 14 15 16 17 18 19 20 21 22 23 24 25 26 27 28 29 30 31 32 33 34 35 36 37 38 39 40 41 42 43 44 45 46 47 48 49 50
423
ASUS43 KMKX 201921
RWRWI

WISCONSIN REGIONAL WEATHER ROUNDUP
NATIONAL WEATHER SERVICE MILWAUKEE/SULLIVAN WI
200 PM CDT WED SEP 20 2017

NOTE: "FAIR" INDICATES FEW OR NO CLOUDS BELOW 12,000 FEET WITH NO
SIGNIFICANT WEATHER AND/OR OBSTRUCTIONS TO VISIBILITY.

WIZ001-002-006>008-014>016-023>028-202000-
NORTHWEST WISCONSIN

CITY           SKY/WX    TMP DP  RH WIND       PRES   REMARKS
SUPERIOR ARPT  SUNNY     72  59  62 W12G17    29.75R
ASHLAND        MOSUNNY   77  67  71 S13G22    29.72S
HAYWARD        CLOUDY    69  61  75 SW8       29.79R
SIREN          MOSUNNY   73  56  56 W9        29.78S
CUMBERLAND     CLOUDY    68  55  64 W9        29.80R
RICE LAKE      CLOUDY    72  60  65 W3        29.81S
CHETEK         CLOUDY    70  64  81 W6        29.79R
LADYSMITH      CLOUDY    74  67  79 S6        29.79S
EAU CLAIRE     MOSUNNY   77  65  66 W14G20    29.77R
MENOMONIE      PTSUNNY   73  63  70 W14       29.79S
NEW RICHMOND   MOSUNNY   75  54  47 W10       29.80S
OSCEOLA        SUNNY     75  55  49 W13       29.82R
$$

WIZ003>005-009-010-017-018-202000-
NORTH CENTRAL WISCONSIN

CITY           SKY/WX    TMP DP  RH WIND       PRES   REMARKS
MANITOWISH WTR CLOUDY    66  66 100 S10G18    29.80R
ARBOR VITAE    CLOUDY    67  64  91 S10G16    29.81S
WOODRUFF       CLOUDY    67  64  91 S10G16    29.81S
RHINELANDER    CLOUDY    66  65  96 S8        29.83S FOG
EAGLE RIVER    CLOUDY    66  65  96 S7        29.82S FOG
LAND O LAKES   CLOUDY    66  64  91 S8        29.83S FOG
PHILLIPS       CLOUDY    68  67  96 S6        29.80R
TOMAHAWK         N/A     67  64  90 S3        29.82S
MEDFORD        CLOUDY    70  66  87 SE8       29.81S
MERRILL          N/A     70  68  94 S6        29.82
$$

WIZ029-030-035-036-043>047-202000-
CENTRAL WISCONSIN

CITY           SKY/WX    TMP DP  RH WIND       PRES   REMARKS
WAUSAU         CLOUDY    72  67  84 S8        29.79F
MOSINEE        CLOUDY    73  70  88 S7        29.82F
MARSHFIELD     CLOUDY    75  66  73 S9        29.80S
STEVENS POINT  CLOUDY    75  69  80 S6        29.80F
WAUPACA        CLOUDY    84  69  61 SE13      29.79F HX  87
WAUTOMA        PTSUNNY   85  71  63 SE13      29.78F HX  90
WISC RAPIDS    CLOUDY    78  69  73 S3        29.80F HX  80
CAMP DOUGLAS   PTSUNNY   82  70  65 S7        29.78S HX  86
$$

WIZ011>013-019>022-031-037>040-048>050-202000-
NORTHEAST WISCONSIN

CITY           SKY/WX    TMP DP  RH WIND       PRES   REMARKS
ANTIGO         CLOUDY    69  67  95 SE10      29.83F FOG
SHAWANO        CLOUDY    82  68  63 SE7G16    29.79F HX  85
OCONTO         CLOUDY    74  65  73 SE13G22   29.82F
STURGEON BAY   CLOUDY    73  65  75 S20G38    29.85F
GREEN BAY      CLOUDY    79  68  69 SE20G28   29.82F HX  81
MANITOWOC      CLOUDY    71  66  84 SE17G26   29.86F
APPLETON       MOSUNNY   79  63  57 SE15      29.80F HX  80
CLINTONVILLE   PTSUNNY   79  64  61 SE14      29.79F HX  81
OSHKOSH        SUNNY     82  69  64 SE16G24   29.79F HX  85
$$

WIZ032>034-041-042-053>061-202000-
SOUTHWEST WISCONSIN

CITY           SKY/WX    TMP DP  RH WIND       PRES   REMARKS
LA CROSSE      PTSUNNY   83  70  64 SW9       29.76S HX  87
SPARTA         CLOUDY    79  69  72 SW3       29.79R HX  82
VIROQUA        CLOUDY    79  71  76 SW8       29.81R HX  82
BOSCOBEL       PTSUNNY   87  70  56 S8        29.77F HX  92
PRAIRIE DU CHI CLOUDY    84  67  57 S5        29.77S HX  86
PLATTEVILLE    SUNNY     88  71  57 S16       29.80F HX  93
$$

WIZ056-057-062-063-064-067-068-202000-
SOUTH CENTRAL WISCONSIN

CITY           SKY/WX    TMP DP  RH WIND       PRES   REMARKS
REEDSBURG      MOSUNNY   87  71  58 S15       29.78S HX  92
BARABOO/DELLS  SUNNY     86  66  51 S15G23    29.79F HX  88
LONE ROCK      MOSUNNY   88  72  58 SW14      29.77F HX  94
MINERAL POINT  SUNNY     88  72  58 S15       29.80F HX  94
MADISON        MOSUNNY   88  70  55 S23G29    29.79F HX  93
MIDDLETON      SUNNY     89  69  50 S18       29.80S HX  93
WATERTOWN      SUNNY     87  69  53 S18G25    29.81F HX  91
MONROE         SUNNY     88  68  51 S22       29.81F HX  91
JANESVILLE     MOSUNNY   91  66  43 S10       29.83F HX  94
$$

WIZ051-052-058>065-066-070>072-202000-
SOUTHEAST WISCONSIN

CITY           SKY/WX    TMP DP  RH WIND       PRES   REMARKS
MILWAUKEE      MOSUNNY   78  69  73 SE18      29.87F HX  80
WAUKESHA       SUNNY     84  66  54 SE13G18   29.86F HX  86
MILWAUKEE/TIMM SUNNY     81  64  57 E10G16    29.87F HX  82
RACINE         SUNNY     79  69  71 SE15G22   29.90F HX  81
BURLINGTON     SUNNY     90  70  51 S13G20    29.85F HX  95
KENOSHA        SUNNY     84  69  60 SE13      29.88F HX  88
FOND DU LAC    SUNNY     85  67  54 SE17G26   29.81F HX  87
SHEBOYGAN      MOSUNNY   74  68  81 SE16G24   29.87F
WEST BEND        N/A     77  68  73 SE13      29.86F
JUNEAU         SUNNY     84  69  60 SE16G26   29.83F HX  88
$$

LSZ147-162-202000-
LAKE SUPERIOR

STATION/POSITION TIME  TEMP    WIND        PRES    WAVE
                       AIR SEA DIR/SP/G            HT/PER
                 (UTC) (F)     (DEG/KT/KT) (MB)    (FT/S)
W MID LAKE BUOY  1850   60 54  200/  6/  8 1006.1S   3/ 4
DEVILS ISLAND    1900   67     240/ 12/ 15 1005.8R
PORT WING        1800   75     240/ 13     1006.4
SAXON HARBOR     1840   71     200/  7/ 16 1006.4R
$$

LMZ867-665-643>646-202000-
LAKE MICHIGAN

STATION/POSITION TIME  TEMP    WIND        PRES    WAVE
                       AIR SEA DIR/SP/G            HT/PER
                 (UTC) (F)     (DEG/KT/KT) (MB)    (FT/S)
S GREEN BAY BUOY 1900   71 66  170/ 21/ 27 1009.7F
N MID LAKE BUOY  1850   65 65  140/  8/ 10 1011.7F   1/ 4
NORTHPORT PIER   1840   67     150/ 12/ 19 1011.2F
KEWAUNEE LAKESHO 1854   62     180/ 10/ 12 1010.4F
SHEBOYGAN LAKESH 1900   66     150/ 17/ 18 1011.0F
PORT WASHINGTON  1840   71     150/  9/ 12 1012.5F
ATWATER BUOY     1809   69 68  160/ 16/ 17 1012.1F
MILWAUKEE LAKESH 1900   69     150/ 17/ 18   N/A
S MID LAKE BUOY  1850   71 69  110/ 12/ 14 1012.8F   2/ 4
KENOSHA   LAKESH 1900   72     170/ 12/ 15 1011.5
$$

TC  - TEMPERATURE IN CELSIUS
VSB - VISIBILITY IN STATUTE MILES
WCI - WIND CHILL INDEX
HX  - HEAT INDEX





USA.gov is the U.S. government's official web portal to all federal, state and local government web resources and services.